sat.trackr.live / text

‹ back to catalog

STARLINK-34146

NORAD 64098 · 2025-110C

PAYLOAD ACTIVE UNKNOWN

§ Identity

Operator
Country
US
Launch date
2025-05-23
Launch site
AFWTR
Launch vehicle
Mass (kg)
RCS (m²)

Purposes: comms

External: N2YO · Heavens-Above · Gunter

§ Orbital elements

Epoch: 2026-05-25T02:32:42.569664Z

Period
93.85 min
Inclination
53.1589°
Eccentricity
0.0001021
Mean motion
15.34407206 rev/d
Perigee alt
462.0 km
Apogee alt
463.4 km
Semi-major
6,840.8 km
B*
8.8195e-4
RAAN
31.0063°
Arg perigee
92.4647°
Mean anomaly
267.6472°
Rev number
5,758

§ Raw data

STARLINK-341461 64098U 25110C   26145.10604826  .00029546  00000+0  88195-3 0  99902 64098  53.1589  31.0063 0001021  92.4647 267.6472 15.34407206 57580

JSON: /api/v1/satellites/64098 · /tle

For live sub-satellite position, see the globe view (requires WebGL).

§ Visibility from observer

Set your observer location to see the next 7 days of passes ≥ 10°. The values pass through the URL so the page stays shareable.

No JS? Fill the form by hand. The geolocation button needs JavaScript.